Temp
14 14 14 14 14 14 14 14 14 14 13 13 13 14 14 14 14 14 13 14 14 14 15 15 15 15 16 14 16 16 15 18 17 17 16 16 16 15 15 15 14 14 14 13 13
14 14 14 14 15 15 15 15 14 14 14 14 13 14 14 14 14 14 14 14 14 15 15 15 13 14 15 16 16 16 18 17 17 17 17 16 16 15 16 15 14 12 12 13 13
13 14 14 14 14 15 15 15 15 14 14 14 14 14 14 14 14 13 14 15 15 15 15 15 14 14 16 17 16 17 17 17 17 16 17 17 16 16 16 16 15 13 15 14 13
13 14 14 14 14 15 15 15 15 15 14 14 14 14 14 14 15 15 15 15 15 15 15 15 14 16 17 17 17 17 17 17 17 17 16 16 16 16 15 15 15 14 15 14 13
13 13 14 14 14 14 15 15 15 15 15 14 14 14 14 14 14 15 15 15 15 15 15 14 15 16 17 17 17 18 17 17 17 17 16 16 16 16 16 16 14 15 15 15 14
13 13 13 14 14 14 14 15 15 15 15 15 14 14 14 13 14 15 15 15 15 15 15 14 15 15 16 17 17 17 17 17 17 17 17 17 17 16 16 15 16 16 15 15 14
13 13 13 13 14 14 14 14 15 15 15 15 14 14 14 13 14 15 15 15 15 15 14 14 14 15 16 17 17 17 18 18 17 17 17 17 15 17 17 16 16 16 16 15 13
13 13 13 13 14 14 14 14 14 15 15 15 15 14 14 15 15 14 15 15 15 15 15 15 15 15 16 16 17 18 18 19 18 17 17 18 18 16 18 16 14 14 15 15 15
13 13 13 13 14 14 14 14 14 14 14 14 15 14 13 15 14 14 14 14 14 15 15 15 15 15 16 17 18 19 19 19 18 18 18 18 18 18 17 16 15 15 16 15 15
13 13 13 13 13 14 14 14 14 14 14 14 14 14 14 14 14 14 14 14 14 14 15 15 15 16 17 17 19 20 20 19 19 18 18 18 19 19 18 17 16 16 14 16 16
12 13 13 13 13 14 14 14 13 14 14 12 13 13 13 14 15 15 14 14 13 14 15 15 16 17 18 18 18 19 18 18 19 18 18 18 19 19 19 18 17 16 14 14 15
12 13 13 13 13 13 14 14 14 14 13 14 14 14 15 14 13 13 14 13 14 15 15 16 16 17 17 18 18 18 18 18 18 18 18 18 18 19 19 19 18 17 16 14 13
12 12 13 13 13 13 14 14 14 14 12 13 14 13 13 14 14 14 13 14 14 15 16 16 18 17 17 17 17 17 18 18 19 18 18 18 19 20 20 19 19 18 18 16 14
12 12 12 12 13 13 13 13 14 14 14 14 13 12 14 13 14 14 13 14 15 15 16 17 17 17 16 16 17 18 18 18 18 18 19 19 20 20 20 20 20 19 18 18 16
12 12 12 12 12 13 13 13 14 14 18 14 13 14 13 14 14 13 13 14 15 15 15 17 16 16 16 17 17 18 18 18 17 18 18 19 20 20 20 20 20 19 19 19 18
11 12 12 12 12 13 13 13 13 13 18 14 13 13 13 13 14 14 13 13 14 15 16 16 17 16 16 17 17 17 17 17 17 18 19 20 20 21 21 21 20 20 19 18 18
11 11 12 12 12 12 13 13 13 16 16 15 15 14 14 15 15 14 14 14 15 15 16 16 16 16 15 16 17 16 17 18 20 20 21 20 21 21 20 20 19 19 19 18 17
11 11 11 12 12 12 12 11 15 17 16 15 15 15 16 16 15 15 15 15 15 16 17 18 19 17 16 16 17 17 17 19 20 21 22 21 20 20 20 19 19 19 19 18 18
10 11 11 11 11 12 12 13 17 16 16 15 15 16 16 16 16 16 16 17 17 16 17 18 18 17 16 16 16 17 17 18 19 20 21 21 21 20 19 19 19 19 19 18 18
10 10 10 11 11 11 10 14 15 14 13 14 16 16 17 16 15 16 16 16 16 15 16 17 17 17 16 16 16 16 17 18 18 19 19 21 20 20 19 19 18 18 18 18 17
10 8 10 10 11 11 12 14 13 12 12 14 16 16 16 17 16 17 17 16 15 15 15 16 17 18 17 16 17 17 17 17 18 20 21 21 21 20 19 18 18 18 17 17 16
8 10 10 10 9 11 13 12 12 13 12 13 13 15 16 16 16 16 16 16 14 15 15 16 16 18 18 18 17 17 18 17 18 19 19 19 20 18 18 18 17 17 16 16 17
8 9 9 10 11 12 12 12 12 12 13 13 13 14 14 15 15 15 15 14 13 14 15 15 16 17 18 18 18 17 17 17 18 18 19 20 20 19 18 17 17 16 15 15 17
8 10 9 9 10 12 12 12 12 11 12 12 13 13 13 14 14 14 14 14 12 13 13 13 14 16 17 18 16 16 17 17 18 18 19 19 19 18 18 17 16 16 15 15 16
8 9 10 11 11 11 11 12 12 12 11 11 12 12 13 14 14 14 14 14 13 12 12 13 14 15 16 16 16 16 16 16 17 17 17 18 19 19 18 17 16 15 14 14 15
8 8 8 9 9 10 10 11 11 12 11 12 12 12 12 12 13 13 13 13 13 13 13 13 14 14 14 15 15 15 16 15 16 16 17 17 17 18 17 16 15 15 13 13 13
8 8 8 9 10 10 11 11 10 10 10 11 11 11 11 11 11 11 11 12 12 12 12 12 13 14 14 14 15 15 15 15 15 16 16 16 16 17 16 16 15 14 13 13 12
Height
3163 3164 3164 3165 3165 3166 3166 3166 3168 3170 3171 3172 3174 3176 3178 3181 3183 3185 3187 3187 3190 3190 3191 3191 3191 3191 3192 3194 3193 3191 3190 3188 3187 3186 3184 3190 3189 3192 3191 3192 3192 3191 3191 3187 3188
3162 3163 3164 3165 3166 3166 3166 3167 3168 3170 3172 3173 3174 3177 3179 3182 3184 3186 3188 3189 3191 3192 3193 3193 3197 3195 3200 3199 3198 3196 3194 3195 3194 3192 3190 3189 3192 3193 3192 3194 3192 3190 3187 3187 3188
3162 3163 3164 3165 3165 3166 3167 3168 3169 3170 3172 3174 3175 3177 3180 3183 3187 3188 3188 3190 3192 3193 3193 3195 3196 3198 3202 3201 3200 3199 3198 3198 3197 3195 3194 3193 3194 3194 3193 3193 3193 3191 3187 3187 3188
3161 3162 3163 3164 3165 3166 3167 3168 3169 3170 3172 3175 3176 3178 3181 3185 3192 3188 3189 3191 3192 3194 3195 3197 3200 3202 3202 3202 3201 3200 3199 3198 3197 3196 3196 3195 3195 3195 3195 3195 3195 3191 3188 3188 3188
3160 3161 3162 3163 3164 3166 3167 3168 3169 3170 3172 3175 3177 3179 3182 3186 3188 3186 3189 3191 3193 3195 3196 3199 3202 3203 3203 3203 3201 3201 3200 3198 3197 3196 3196 3194 3194 3194 3195 3194 3195 3192 3191 3190 3190
3159 3160 3161 3163 3164 3165 3166 3167 3169 3170 3172 3174 3176 3179 3182 3187 3185 3186 3189 3191 3193 3195 3197 3200 3203 3202 3203 3203 3202 3201 3200 3199 3198 3196 3193 3189 3187 3188 3193 3193 3193 3193 3192 3192 3191
3159 3160 3161 3162 3163 3165 3166 3167 3168 3170 3171 3173 3176 3178 3182 3185 3183 3186 3188 3191 3193 3195 3198 3201 3200 3202 3203 3203 3202 3202 3200 3198 3198 3196 3190 3194 3170 3184 3190 3193 3193 3192 3192 3193 3193
3158 3160 3160 3161 3163 3164 3166 3167 3168 3170 3171 3173 3175 3179 3184 3180 3183 3185 3188 3190 3192 3194 3196 3197 3200 3201 3203 3203 3202 3201 3199 3195 3197 3196 3191 3190 3187 3186 3190 3192 3192 3193 3192 3193 3194
3158 3159 3160 3161 3162 3163 3165 3167 3168 3170 3171 3173 3175 3178 3184 3181 3183 3185 3187 3191 3192 3194 3196 3198 3199 3202 3204 3203 3199 3197 3194 3195 3197 3196 3195 3193 3190 3190 3190 3192 3191 3192 3191 3192 3192
3158 3158 3159 3160 3161 3163 3165 3167 3169 3170 3171 3173 3176 3181 3179 3180 3181 3183 3186 3188 3192 3194 3196 3198 3201 3202 3201 3200 3195 3192 3192 3193 3196 3197 3195 3193 3191 3191 3190 3192 3192 3189 3190 3189 3190
3157 3157 3158 3159 3160 3162 3165 3167 3173 3174 3171 3174 3177 3175 3174 3177 3178 3182 3185 3188 3192 3195 3196 3198 3200 3198 3197 3196 3196 3194 3196 3196 3195 3195 3195 3193 3191 3190 3189 3189 3191 3190 3189 3188 3188
3156 3157 3158 3159 3160 3162 3164 3166 3168 3170 3173 3171 3172 3172 3173 3174 3179 3181 3183 3188 3191 3193 3195 3197 3195 3195 3195 3195 3195 3194 3195 3194 3194 3193 3194 3192 3190 3189 3187 3187 3188 3190 3188 3187 3186
3155 3156 3157 3158 3160 3162 3163 3165 3166 3168 3171 3171 3171 3172 3174 3175 3180 3181 3181 3186 3190 3192 3192 3193 3193 3192 3193 3193 3194 3193 3193 3192 3192 3191 3191 3190 3187 3184 3184 3185 3187 3187 3187 3186 3185
3153 3155 3156 3158 3162 3161 3162 3164 3166 3169 3173 3172 3170 3172 3172 3174 3179 3181 3180 3187 3188 3189 3190 3190 3191 3190 3191 3191 3192 3189 3190 3190 3190 3191 3187 3184 3183 3182 3182 3182 3182 3183 3183 3185 3183
3152 3154 3155 3157 3159 3161 3163 3164 3167 3170 3166 3171 3170 3168 3172 3175 3177 3177 3179 3184 3185 3186 3188 3186 3187 3188 3187 3188 3189 3188 3188 3188 3188 3188 3186 3182 3182 3179 3179 3180 3179 3182 3181 3182 3182
3150 3152 3154 3156 3158 3160 3162 3165 3168 3173 3163 3168 3167 3167 3171 3174 3176 3176 3177 3180 3183 3184 3184 3183 3184 3184 3184 3184 3185 3186 3187 3186 3186 3185 3181 3178 3177 3172 3174 3176 3177 3178 3179 3178 3179
3149 3151 3153 3155 3157 3159 3162 3165 3172 3165 3166 3167 3168 3169 3171 3173 3175 3176 3176 3178 3179 3182 3178 3179 3179 3180 3181 3182 3182 3183 3183 3180 3177 3173 3171 3170 3171 3169 3173 3175 3177 3177 3178 3177 3175
3148 3149 3152 3154 3156 3158 3161 3167 3167 3162 3164 3165 3167 3169 3170 3172 3174 3174 3176 3176 3177 3177 3175 3173 3170 3173 3177 3178 3178 3178 3179 3175 3169 3163 3159 3160 3167 3170 3172 3173 3175 3175 3174 3175 3175
3146 3148 3151 3152 3155 3157 3162 3166 3162 3163 3163 3165 3167 3168 3169 3171 3172 3173 3173 3172 3173 3175 3176 3169 3171 3172 3175 3175 3177 3176 3175 3175 3171 3167 3163 3159 3163 3167 3169 3171 3172 3173 3174 3175 3174
3145 3148 3150 3151 3154 3157 3161 3161 3161 3161 3163 3164 3165 3165 3165 3168 3170 3170 3169 3170 3171 3173 3174 3172 3171 3169 3171 3173 3173 3173 3172 3172 3169 3167 3163 3157 3161 3163 3167 3169 3171 3173 3173 3174 3173
3145 3151 3149 3150 3153 3156 3160 3161 3160 3160 3161 3165 3164 3164 3164 3164 3166 3166 3166 3168 3170 3171 3172 3172 3171 3169 3168 3170 3167 3168 3168 3169 3165 3161 3157 3157 3157 3157 3160 3167 3171 3172 3172 3172 3170
3145 3154 3149 3150 3155 3157 3158 3158 3158 3160 3160 3163 3163 3163 3163 3164 3165 3165 3165 3167 3168 3170 3170 3170 3167 3163 3162 3161 3163 3164 3162 3163 3161 3161 3160 3158 3156 3159 3164 3166 3169 3171 3171 3168 3168
3147 3149 3148 3149 3154 3155 3155 3156 3157 3159 3160 3162 3162 3163 3163 3164 3165 3163 3164 3164 3167 3169 3169 3169 3166 3161 3158 3157 3157 3161 3161 3160 3159 3156 3154 3153 3153 3154 3160 3164 3166 3168 3168 3166 3165
3148 3150 3150 3149 3150 3151 3153 3154 3155 3155 3158 3159 3161 3161 3162 3162 3163 3162 3164 3164 3165 3167 3164 3167 3166 3163 3158 3154 3161 3159 3158 3158 3157 3154 3152 3152 3155 3156 3159 3160 3165 3166 3165 3164 3162
3147 3148 3146 3149 3150 3150 3150 3152 3153 3155 3156 3157 3158 3159 3160 3160 3160 3161 3162 3162 3162 3162 3164 3166 3163 3161 3158 3156 3156 3157 3157 3155 3155 3156 3154 3151 3150 3152 3155 3156 3158 3163 3163 3163 3159
3143 3146 3146 3147 3146 3148 3149 3150 3152 3153 3155 3155 3157 3157 3158 3159 3159 3158 3158 3160 3161 3161 3160 3161 3159 3158 3156 3154 3155 3154 3152 3153 3153 3152 3152 3152 3149 3149 3154 3153 3155 3157 3160 3161 3157
3140 3141 3143 3145 3146 3147 3148 3149 3150 3150 3152 3152 3153 3154 3157 3156 3154 3156 3157 3158 3158 3159 3159 3159 3156 3153 3148 3149 3148 3146 3148 3148 3148 3148 3148 3148 3148 3150 3150 3151 3148 3151 3156 3156 3152
Wind_Speed
6 6 5 5 5 5 6 9 10 9 8 9 10 13 15 16 16 15 10 14 14 13 12 14 16 16 14 5 7 7 7 14 15 15 13 6 7 6 8 8 5 4 1 5 9
7 8 7 6 6 5 5 9 10 10 10 9 11 14 17 17 16 15 15 16 14 12 11 13 5 6 6 4 4 4 10 8 7 8 6 10 7 6 8 5 5 5 3 4 8
7 8 9 9 8 7 6 7 10 10 11 11 12 15 17 17 13 10 15 17 14 11 11 10 7 4 4 4 2 4 5 7 6 6 6 7 6 5 3 8 2 3 4 3 9
7 8 9 10 9 9 8 7 9 11 12 13 13 15 17 16 3 13 16 17 13 9 10 8 3 4 3 3 2 3 6 6 7 5 5 4 5 5 3 2 4 1 8 3 6
6 7 8 9 9 10 10 9 9 11 13 14 14 15 18 18 7 16 17 15 14 11 10 2 2 3 3 3 2 4 6 6 6 4 3 3 2 4 5 7 5 3 6 6 8
6 7 8 9 9 10 10 11 11 10 13 15 16 17 18 10 19 15 17 15 12 12 9 5 2 4 3 5 4 5 4 3 4 3 3 4 6 7 4 2 5 3 3 6 8
6 7 8 9 9 9 9 10 11 12 12 15 17 19 17 15 20 15 19 15 14 12 7 7 7 2 5 4 5 5 4 3 3 5 7 5 14 12 4 6 4 4 2 2 8
5 7 8 9 10 10 9 9 9 11 13 13 16 18 14 23 18 15 20 19 17 16 15 12 10 7 7 7 6 6 5 8 3 5 8 8 6 6 7 2 6 6 2 3 6
4 6 7 9 10 10 10 9 8 9 11 13 14 16 12 18 18 19 18 16 19 19 18 15 13 11 9 10 10 9 11 2 2 4 7 6 8 4 4 6 7 10 6 7 9
4 5 6 8 10 10 10 10 9 8 9 10 13 10 13 13 21 22 20 20 16 18 19 18 14 14 14 12 18 7 7 4 6 7 8 9 7 7 6 10 10 8 11 11 10
5 6 5 6 8 10 11 11 7 6 10 11 6 12 10 14 20 21 23 19 13 14 16 13 16 17 13 14 15 16 12 11 11 10 10 10 10 7 5 8 12 14 16 15 14
6 6 6 7 8 9 11 13 13 12 6 12 11 20 11 13 10 16 20 18 16 16 14 16 17 16 15 15 16 14 16 16 14 12 12 13 14 11 6 7 9 10 16 18 19
7 6 7 8 8 9 10 10 10 10 7 11 11 11 8 10 7 14 19 19 16 16 17 18 16 9 14 16 15 17 17 18 17 14 18 16 16 14 8 7 8 7 10 16 20
9 8 8 8 9 9 9 9 9 8 5 8 6 9 11 10 9 13 17 16 17 17 18 22 17 18 15 17 15 20 13 14 15 16 17 9 14 8 9 6 11 8 7 10 18
10 10 9 9 8 10 10 9 10 12 6 6 8 13 11 12 7 12 13 17 18 16 14 18 16 17 19 18 14 17 13 14 15 16 20 20 14 13 9 10 7 5 6 7 12
12 11 11 10 10 9 9 10 12 4 3 5 6 9 15 13 9 9 13 14 12 15 17 20 13 17 15 16 18 17 13 13 15 16 20 22 19 21 10 7 10 11 10 10 7
13 13 12 12 12 11 11 13 5 9 6 6 8 11 12 10 11 9 13 14 12 11 17 15 19 20 16 15 13 15 17 18 14 14 14 18 18 12 10 12 12 12 11 8 5
13 13 13 13 12 13 14 8 9 2 5 7 9 10 12 11 11 11 9 14 15 14 13 10 15 14 16 18 17 13 17 20 12 11 14 20 8 15 13 10 10 9 8 6 5
13 13 13 13 13 14 16 11 6 5 8 7 9 12 12 12 8 14 13 13 13 13 14 7 10 7 12 14 16 20 22 17 24 24 19 17 9 7 11 12 7 6 4 3 4
12 10 12 12 12 15 11 15 7 6 7 8 12 13 13 13 11 11 13 11 11 11 12 12 14 13 7 7 13 17 19 14 21 15 16 13 13 13 4 6 5 6 4 4 3
11 6 9 11 12 15 12 10 10 8 8 8 11 7 12 11 12 10 10 8 9 7 8 10 14 9 9 13 15 12 14 21 21 19 13 12 16 10 11 9 5 6 5 6 4
13 4 8 12 10 9 13 11 13 7 9 7 6 9 11 12 11 12 10 9 11 7 8 8 14 18 19 16 11 13 13 15 24 20 21 19 19 3 5 6 7 6 4 5 5
7 7 10 14 7 11 10 10 8 9 9 9 9 10 11 10 11 11 11 6 6 7 9 5 13 19 17 21 19 14 18 19 20 23 21 18 12 17 8 5 5 3 3 5 2
8 4 5 12 8 7 10 12 10 11 9 10 9 10 10 11 11 7 13 12 9 10 15 16 16 20 23 16 7 14 12 16 20 21 20 19 20 11 11 10 6 1 5 6 6
5 8 10 7 9 9 10 9 12 10 12 9 10 12 11 12 12 12 14 14 12 15 14 14 21 22 22 23 21 18 21 19 17 22 27 26 23 19 17 10 7 3 5 6 11
10 5 9 7 7 8 9 9 11 11 10 11 13 12 13 13 13 13 10 11 13 9 8 11 22 22 28 26 21 29 24 25 26 24 24 25 28 23 9 6 8 8 9 9 12
11 9 8 9 8 9 9 11 10 13 11 13 11 11 10 14 11 13 11 14 15 15 16 16 19 21 25 22 23 28 27 27 27 29 27 28 28 24 25 19 10 12 10 11 17
Wind_Direction
185 181 174 156 147 141 151 174 175 169 163 165 166 164 169 170 167 163 150 155 144 127 113 95 94 86 75 52 72 36 292 52 35 35 76 65 64 53 69 44 62 69 22 229 169
195 194 190 181 168 158 145 170 176 170 163 165 168 165 166 169 168 170 162 161 151 135 118 96 39 61 33 26 26 50 48 41 31 23 24 73 73 57 78 60 38 91 154 183 175
194 200 196 192 183 175 166 158 178 175 168 167 169 166 167 168 164 213 176 171 162 147 123 101 88 37 66 45 29 33 42 15 20 38 41 47 56 57 85 61 347 158 18 183 181
192 198 196 196 190 188 186 174 175 182 175 172 171 168 171 159 140 193 180 180 182 166 143 112 41 39 43 54 7 41 359 0 347 340 43 51 70 62 54 73 73 186 38 111 176
191 191 192 193 191 191 192 191 182 186 185 179 177 176 175 165 236 194 187 187 193 187 168 187 326 326 331 343 6 357 343 359 0 9 42 79 80 95 63 34 108 334 43 82 157
187 188 184 182 183 187 191 193 194 190 191 188 186 183 179 177 224 200 195 191 195 191 174 222 250 274 312 309 341 338 348 358 357 343 276 209 186 122 38 38 347 336 23 72 145
180 186 179 175 177 179 182 187 190 196 194 194 194 192 185 213 219 206 202 200 206 200 200 253 253 251 289 288 302 312 319 202 21 329 272 290 264 110 33 43 39 10 331 71 155
175 182 179 177 180 180 178 175 178 189 195 195 200 195 183 214 207 205 205 205 211 221 218 223 219 242 267 273 292 275 247 236 350 9 328 308 73 46 337 267 182 178 270 223 186
175 176 176 175 180 183 181 179 175 179 185 193 199 200 228 213 213 210 206 209 215 221 232 235 242 249 249 257 277 228 273 306 298 343 336 331 329 305 256 205 208 190 222 228 216
186 173 174 173 175 179 181 179 173 175 174 178 196 188 235 216 215 213 209 205 211 223 231 237 244 246 247 249 255 306 245 216 271 299 309 309 302 307 256 210 221 252 207 224 236
196 181 177 169 173 175 174 170 156 200 182 164 195 198 211 219 225 215 216 213 208 222 230 244 237 242 246 250 260 276 278 273 274 290 300 295 302 307 297 225 215 231 215 217 224
205 188 175 173 177 177 177 186 185 197 190 218 214 207 230 211 210 206 211 205 212 220 230 231 241 246 250 258 261 266 257 266 273 281 279 288 287 290 287 249 238 241 244 219 215
206 197 179 176 178 181 190 187 185 180 138 253 220 212 230 192 188 217 209 204 215 228 227 236 234 257 250 253 255 259 261 266 270 284 276 275 273 268 241 248 239 256 249 241 220
207 200 189 182 181 179 186 185 179 171 176 223 234 210 208 170 217 193 211 206 218 236 237 241 252 253 257 253 255 262 263 271 269 266 265 243 282 265 254 269 242 263 248 244 238
207 203 196 189 183 182 180 177 166 157 237 173 193 217 191 160 203 222 194 208 218 240 233 243 250 247 247 246 250 262 266 267 261 260 257 259 249 270 249 260 244 274 285 274 247
206 203 200 195 192 184 175 162 157 193 199 184 214 183 178 196 201 204 198 199 221 238 242 244 254 240 247 254 250 249 257 265 257 255 253 250 256 250 262 291 262 283 295 298 251
207 204 201 196 193 179 169 152 180 253 163 210 180 184 176 193 202 203 197 207 208 216 234 249 245 252 245 249 245 235 238 250 231 225 242 247 245 264 270 277 267 279 286 302 258
204 202 202 200 192 178 166 167 242 215 196 173 180 183 195 202 204 193 210 220 228 235 271 253 265 224 238 238 241 232 236 251 257 260 263 223 212 254 263 254 278 265 265 287 254
201 200 202 200 192 180 169 202 243 222 200 188 189 195 201 204 222 216 228 232 233 235 243 303 246 216 239 243 240 240 245 254 270 272 275 269 218 235 254 264 235 224 289 310 274
193 191 205 199 189 181 191 217 242 203 195 191 204 206 207 212 220 213 208 220 230 228 235 257 278 252 238 232 242 243 244 257 235 261 272 266 240 253 233 223 252 233 253 299 330
168 148 215 192 183 183 202 233 230 218 200 198 228 229 230 202 221 215 215 211 211 229 232 249 254 248 222 249 253 226 248 240 266 259 255 243 261 297 207 214 238 263 262 285 334
136 182 209 179 171 198 227 231 206 213 217 219 212 226 225 225 225 236 225 241 201 222 243 248 265 259 245 264 233 253 265 239 238 240 258 285 287 177 162 205 213 257 294 329 277
113 233 206 168 182 224 219 225 195 218 213 224 227 218 224 222 236 227 221 216 224 233 252 282 242 259 254 251 231 249 256 252 259 269 257 264 245 234 206 217 216 248 348 350 294
146 170 211 193 231 191 223 208 217 216 208 209 214 220 227 228 224 233 233 243 244 242 244 244 264 272 282 304 271 286 248 254 261 263 263 252 258 218 247 213 213 285 356 10 296
176 213 189 225 224 211 203 212 207 221 216 218 228 223 229 236 232 239 243 242 262 254 267 257 261 267 270 272 273 273 269 273 254 259 269 268 257 237 237 194 197 292 321 342 304
167 205 209 215 218 197 223 219 212 221 215 228 229 237 226 236 243 257 252 239 249 239 267 252 261 266 268 269 269 268 263 262 258 262 261 262 266 259 259 271 250 247 301 326 306
207 209 199 235 214 223 225 225 227 230 229 221 218 223 233 244 239 229 242 245 252 254 261 266 271 280 277 274 269 259 257 254 259 260 257 256 255 258 265 276 235 244 290 304 286